COSMOS 249 DEB, 3794

Orbit data source: Space-Track

COSMOS 249 DEB, 3794 is space debris in LEO originally from a launch on Sun, 20 Oct 1968 UTC launched from the Tyuratam Missile And Space Complex (TTMTR). Debris objects in space refer to the collection of defunct objects orbiting the Earth. Examples of debris include non-operational satellites, rocket bodies, and fragments generated from explosions, collisions, or faulty payload assembly.

Loading next visibility...
Identifier
3794, 1968-091BB
Orbit
LEO
Country
Flag of CISCIS
Related business
Manufacturer
Unknown
Mission
Spacecraft
Bus & Motor
Unknown
Mass
Unknown
Launch date (UTC)
1968-10-20 (58 years ago)
Launch vehicle
Unknown
Launch site
Tyuratam Missile And Space Complex (TTMTR)
Object type
Payload
Rocket body
Debris
Shape & HBR
Unknown shape, 0.1 m
Radar Cross Section
Medium (>0.1 m² and <1 m²)

Expand to show TLE details & history
Last TLE update: 19 hours ago

TLE from 19 hours ago
0 COSMOS 249 DEB
1 03794U 68091BB  26235.68182226  .00000312  00000-0  35399-3 0  9998
2 03794  62.2703 123.3561 0560582 266.2633  87.4140 13.31081589719066
Epoch: 2026-08-23T16:21Z
TLE epoch observation values (Epoch: 2026-08-23T16:21:49.443Z)
Latitude
0.00002°
Longitude
-94.07428°
Altitude
1,148.952 km
Speed
7.277 km/s
True Right ascension
08h 13m 25s
True Declination
0° 00' 00"
Sunlit
Object was in daylight at epoch
Visualization orbit readout
Latitude
Unknown
Longitude
Unknown
Altitude
Unknown
Speed
Unknown
Apparent Right ascension
Unknown
Apparent Declination
Unknown
Sunlit
N/A
Visualization observer readout
Local Sidereal Time
02:28:50
Azimuth
Unknown
Elevation
Unknown
Doppler factor
Unknown
Orbital elements
Apogee altitude
1,563.206 km
Perigee altitude
720.114 km
Semi-major axis
7,519.797 km
Eccentricity
0.05606
Inclination
62.2703°
RAAN
123.3561°
Arg. of periapsis
266.2633°
True anomaly
93.83811°
Mean anomaly
87.414°
Eccentric anomaly
90.62571°
Mean motion
3.32839 °/min
Orbital period
108.16 mins
BSTAR
0.00035399
Loading maneuver chart data...
Computing Atmospheric mass density...
Loading historical data...
Loading historical data...
Loading historical data...
Loading historical data...
Loading historical data...
Loading historical data...
Loading historical data...

Documentation

Showing up to 5 results
|